Wind_Speed
22 21 21 22 22 21 20 19 19 19 20 21 21 21 19 19 18 19 19 18 17 16 15 14 13 13 13 12 12 11 10 10 9 8 7 7 8 8 9 9 10 11 11 11 11 11 11 12 12 12 13 13 13 12 11 11 11 11 12 14 16 17 17 17 17 16 15 15 14 14 15 16 16 17 17 18 19 19 19 19 20 20 21 21 19
24 22 22 22 22 22 21 21 21 20 20 21 22 22 21 20 20 20 20 19 18 17 16 15 14 14 14 14 13 13 12 11 10 9 9 8 8 8 9 10 10 10 10 10 11 11 12 12 12 13 13 13 13 13 12 12 12 12 13 14 16 17 18 18 17 17 16 16 16 16 17 17 18 19 19 20 21 21 21 21 21 21 21 21 21
25 24 23 22 22 21 22 22 22 22 22 21 21 22 22 21 21 21 21 20 19 18 17 16 16 15 15 15 15 14 13 13 12 11 10 10 9 9 10 10 10 10 10 10 11 11 12 12 13 13 13 13 14 14 14 13 14 14 14 15 17 18 19 19 18 17 16 17 17 17 18 18 19 20 20 21 22 22 23 22 22 22 21 21 22
26 26 25 24 23 23 22 22 23 23 23 22 21 21 22 23 23 22 22 22 21 19 18 18 17 17 16 16 15 15 14 13 12 12 12 12 11 11 11 11 11 11 11 11 11 11 12 12 13 13 13 13 14 15 15 15 16 16 16 17 18 18 19 19 18 18 17 16 17 18 19 19 20 21 22 23 23 24 24 24 23 22 21 22 23
26 26 26 26 26 26 24 23 23 23 23 23 23 22 22 23 23 23 23 23 22 21 20 19 18 18 17 16 16 16 15 15 14 14 14 13 13 13 13 12 12 12 12 12 12 12 12 13 13 13 14 14 14 16 17 17 18 18 18 18 19 19 19 19 19 19 18 18 17 18 19 20 21 22 23 24 26 26 26 26 25 24 23 23 24
25 26 26 27 28 28 27 26 24 23 23 23 23 23 23 23 23 24 24 24 23 22 22 21 20 19 18 17 17 17 16 16 16 16 15 15 15 15 14 14 14 14 14 14 14 14 13 13 14 14 14 14 15 16 17 19 19 19 20 20 20 20 19 19 19 19 19 19 19 20 21 21 22 23 25 26 27 29 29 28 27 26 25 24 25
25 26 26 27 29 28 28 27 25 24 23 23 23 23 24 24 24 24 25 25 25 24 24 23 22 21 20 20 19 18 18 18 18 17 18 18 17 16 16 15 15 15 16 16 16 15 15 15 15 15 15 15 16 17 18 19 20 21 21 21 20 20 20 20 21 21 20 20 21 21 22 23 24 25 26 27 28 29 30 30 29 28 27 26 26
25 26 27 28 28 28 27 27 26 26 25 24 24 23 24 25 25 25 26 26 26 26 25 25 24 23 22 22 21 21 20 20 19 19 19 19 19 18 18 17 17 17 17 17 17 17 17 17 17 17 16 16 17 18 19 20 21 21 22 21 21 21 21 22 22 22 22 22 22 23 24 24 25 26 27 28 28 29 30 30 29 29 28 28 27
25 27 28 29 29 28 27 27 27 27 26 26 25 25 25 25 26 26 26 27 27 27 27 27 26 25 25 24 23 23 23 22 21 20 20 20 20 20 20 20 19 19 19 19 19 19 19 18 18 19 18 18 18 19 20 21 22 22 22 22 22 22 23 23 23 23 23 23 24 24 25 25 25 26 27 28 29 29 30 30 30 29 29 28 28
23 26 28 29 30 30 29 28 28 27 27 27 26 26 26 26 27 27 27 27 28 28 28 29 28 28 27 26 25 25 25 24 23 22 21 21 20 21 22 22 22 22 21 21 21 21 21 20 20 20 20 20 20 21 21 22 22 23 23 23 24 24 24 24 24 24 24 25 25 25 26 26 26 26 27 29 30 30 30 30 29 29 29 29 28
23 25 27 29 30 31 31 30 30 29 29 28 27 27 27 28 28 28 28 29 29 29 29 29 29 29 29 28 28 28 27 25 23 23 23 23 22 23 23 23 24 24 24 24 23 22 22 22 22 22 22 22 23 23 23 23 23 24 24 24 25 25 25 26 25 25 26 26 26 26 27 27 26 26 28 29 31 31 31 30 29 28 29 28 27
25 26 27 29 30 31 31 32 32 32 31 30 29 29 29 29 30 29 29 29 30 30 31 30 30 30 30 30 29 29 28 27 25 24 24 25 25 25 25 25 25 26 26 26 25 25 24 24 24 24 24 24 24 24 25 25 25 25 25 26 27 27 27 27 26 26 27 27 27 27 27 27 27 27 28 29 30 30 30 29 28 28 28 27 26
26 28 29 29 29 30 31 32 33 33 33 32 32 32 32 32 31 31 30 30 31 31 31 31 31 31 31 31 30 29 29 28 27 26 25 26 26 27 27 27 27 27 27 28 27 27 27 26 26 26 26 25 25 25 26 26 26 26 27 27 28 27 27 27 27 27 28 28 28 28 27 28 28 27 27 28 28 28 28 27 27 27 27 27 25
26 29 28 27 28 30 31 31 31 32 33 34 34 34 34 34 33 33 33 33 33 33 32 32 33 33 33 33 31 30 29 28 28 27 27 27 27 28 29 29 29 29 28 29 29 29 28 28 28 27 27 27 26 26 26 27 27 27 28 28 28 28 28 28 28 28 28 29 29 28 27 27 27 26 26 27 27 26 27 26 26 26 26 25 23
25 26 27 27 27 28 31 32 32 32 34 35 35 36 36 35 35 35 35 35 35 34 33 33 33 33 34 34 33 33 31 29 28 28 28 28 28 29 30 31 31 31 30 29 29 29 29 29 29 29 28 28 28 27 26 27 28 28 29 29 29 29 28 28 27 27 28 28 28 27 26 26 26 25 25 26 26 26 26 26 26 25 24 23 22
26 26 27 27 27 27 29 31 32 33 34 35 36 37 37 37 36 36 37 37 36 35 34 34 34 34 34 34 34 34 32 31 30 29 28 29 30 31 31 32 32 32 31 30 30 30 30 30 30 30 29 29 28 27 26 27 28 29 29 29 29 29 28 27 26 26 26 27 27 26 26 25 25 24 24 25 26 26 26 26 25 25 24 24 22
26 26 27 28 28 27 28 30 31 31 33 34 36 38 39 38 38 38 38 38 36 35 34 34 34 34 34 34 35 34 33 32 32 30 30 30 32 33 33 33 33 33 32 32 31 31 31 31 31 30 30 29 29 28 27 28 29 30 29 29 28 28 28 27 25 25 25 26 27 26 25 25 26 25 24 24 25 26 27 26 24 25 26 25 24
25 26 28 28 28 28 29 30 31 31 32 33 35 37 39 40 40 40 39 39 37 35 34 34 34 34 34 34 34 34 33 33 32 31 31 32 33 34 34 34 34 34 33 33 33 33 32 31 31 31 30 29 29 29 28 29 30 31 30 30 29 28 27 27 27 26 25 26 27 27 27 26 26 26 25 24 25 26 28 25 23 25 26 25 26
25 26 28 29 30 29 30 31 33 33 34 34 35 36 38 39 41 42 41 40 39 37 36 35 34 34 34 34 34 34 34 34 34 33 33 33 34 34 35 35 35 35 34 34 34 34 33 33 32 32 31 29 29 29 29 30 31 32 31 31 30 28 27 28 28 27 27 27 27 28 29 29 28 27 26 25 25 27 27 26 24 25 26 25 26
24 26 28 30 31 31 31 32 34 35 35 36 36 37 38 38 39 41 42 41 41 40 39 37 36 35 35 34 34 34 34 34 34 33 33 34 35 35 36 37 36 35 34 34 34 34 34 34 33 32 30 30 30 30 30 30 31 32 32 32 29 27 27 29 29 28 29 30 28 28 30 31 30 29 27 26 26 27 27 27 26 26 26 26 27
21 24 27 29 31 33 33 33 35 36 36 37 37 37 38 38 38 39 39 39 40 42 42 41 39 37 36 36 35 34 34 34 34 33 33 34 35 36 36 37 37 35 34 34 34 35 35 34 33 32 30 30 30 31 31 31 31 33 33 32 29 27 28 30 31 30 31 31 31 31 30 30 30 29 28 27 26 26 27 27 27 27 27 27 27
19 21 24 27 30 33 34 34 35 36 37 38 38 38 38 38 39 40 39 38 40 42 42 41 40 39 38 36 35 34 33 33 32 32 32 33 34 35 36 36 36 35 35 35 35 35 35 34 33 31 30 29 30 31 32 32 33 34 34 32 30 29 30 31 32 33 33 32 33 33 31 31 30 29 27 25 24 25 27 27 27 27 28 27 27
19 20 22 25 28 31 34 35 36 37 38 38 38 39 39 39 40 40 39 39 40 40 40 40 40 41 39 36 35 33 32 30 30 29 30 31 33 34 35 35 35 35 34 34 34 34 34 33 32 31 30 29 29 30 32 33 34 35 33 32 32 32 33 34 35 36 35 34 34 34 32 31 30 28 27 25 25 26 27 27 27 27 28 28 28
21 21 22 23 26 29 33 36 38 38 39 39 39 41 42 38 35 36 37 38 39 39 39 40 40 41 40 38 36 34 32 30 28 28 28 29 30 32 33 33 34 33 33 33 33 33 33 32 31 30 28 28 28 30 32 34 35 34 33 33 33 34 36 38 38 37 37 36 36 35 33 31 30 28 27 27 27 28 28 28 28 29 30 30 31
23 23 23 23 24 27 31 36 38 40 41 40 40 42 40 32 30 33 37 38 39 39 39 40 41 41 40 39 38 35 34 32 29 27 27 27 28 29 30 31 32 31 31 32 32 32 32 31 30 29 28 28 29 31 33 34 34 33 32 32 34 36 38 38 38 38 38 37 36 35 33 31 29 28 28 28 28 29 29 29 29 30 31 31 32
27 26 25 24 24 26 30 34 37 40 41 40 39 39 35 29 28 32 35 37 39 38 38 38 40 41 41 40 39 37 35 34 31 27 26 26 26 26 27 28 29 29 30 31 32 32 32 31 30 30 29 29 30 32 33 33 33 33 33 33 34 36 37 38 38 38 37 37 36 35 33 31 30 30 29 29 29 30 30 29 30 31 31 32 32
32 30 28 27 26 27 29 33 36 38 39 39 38 37 34 31 30 31 33 36 39 38 37 37 38 40 41 41 40 38 36 34 32 28 25 25 24 24 24 24 25 27 28 28 29 30 31 31 31 31 31 31 32 33 33 34 34 34 34 34 35 35 36 36 37 37 37 37 36 35 34 33 32 32 31 30 31 31 31 31 31 32 32 33 34
34 34 32 30 29 29 29 31 35 36 36 37 38 37 34 32 33 33 33 36 39 39 40 39 37 37 40 42 42 40 38 36 33 29 25 24 22 21 21 22 23 25 25 25 27 28 29 31 31 32 33 33 34 35 35 35 34 34 34 34 34 34 34 35 36 36 36 36 35 35 34 34 34 33 32 32 32 32 32 33 34 34 33 34 35
33 34 34 33 32 31 31 31 33 35 35 35 37 39 37 33 34 35 34 36 39 40 41 40 37 36 39 42 44 42 39 36 33 29 26 24 22 21 22 23 24 25 26 26 27 29 30 31 32 33 34 35 35 36 36 36 36 36 35 35 35 34 34 35 35 36 36 35 35 35 35 35 35 34 33 34 34 33 34 35 35 35 36 36 36
31 33 33 33 33 33 32 33 33 34 34 34 35 38 38 35 34 36 37 37 39 40 40 38 36 37 38 40 42 42 39 36 33 29 27 25 23 23 25 26 26 28 29 30 31 32 33 34 34 35 36 36 36 36 36 36 36 36 36 37 36 36 36 36 36 36 35 35 35 35 35 36 35 35 34 35 35 35 35 35 36 36 37 38 38
31 31 32 33 34 33 33 33 33 33 34 34 34 36 38 37 35 35 38 40 40 40 40 39 37 37 38 39 40 41 40 38 34 31 30 27 23 24 26 27 28 30 31 33 33 34 34 35 36 37 37 37 37 36 37 37 37 37 37 37 37 37 38 37 37 37 36 36 36 37 37 36 36 35 36 36 36 36 35 36 36 37 36 37 38
31 31 32 33 33 34 33 33 33 32 33 33 33 34 36 38 36 35 36 39 40 40 40 40 37 35 37 39 40 39 41 42 39 36 35 31 25 24 28 30 30 31 32 33 32 30 31 32 34 35 37 38 37 37 38 39 39 39 39 39 39 39 39 39 38 37 37 36 37 38 39 38 38 37 37 37 37 37 37 37 37 37 37 37 37
34 33 33 33 33 34 34 33 33 32 32 33 33 33 35 38 39 37 35 36 39 41 41 40 38 35 35 39 41 40 39 40 38 36 34 31 28 28 30 31 32 33 33 32 30 28 28 29 30 32 34 36 37 38 39 40 41 41 41 41 41 41 40 41 40 39 38 38 38 39 39 40 40 39 38 38 37 37 37 38 38 38 39 39 38
37 35 34 34 33 33 34 34 34 33 32 32 32 32 33 36 40 40 37 34 35 37 39 39 38 36 37 39 41 41 39 37 34 32 31 30 30 30 30 31 32 32 32 32 29 27 27 27 28 29 31 33 34 36 37 39 39 40 41 42 43 43 43 43 42 41 40 39 39 40 40 40 40 40 40 39 37 36 37 38 39 40 41 40 39
41 39 37 35 34 34 34 34 34 34 33 32 32 33 33 35 38 40 40 37 34 33 34 36 36 37 39 41 41 40 39 36 34 31 31 30 30 31 31 31 30 30 31 31 29 26 26 26 27 28 29 30 31 33 34 35 36 37 38 40 42 43 44 44 44 44 44 43 41 41 41 41 41 41 41 40 39 38 39 39 39 40 41 41 40
43 42 40 38 37 35 34 34 34 35 34 32 32 32 34 35 37 39 40 39 38 36 34 34 35 36 38 40 41 40 38 36 35 33 32 32 32 32 31 30 29 29 29 29 28 26 26 25 25 26 28 30 30 31 32 33 34 34 36 37 38 40 41 42 42 43 44 45 44 42 42 42 42 42 43 43 42 41 40 39 39 40 40 40 40
44 44 43 42 40 38 36 35 34 35 36 35 33 32 33 35 37 39 39 38 38 38 36 35 36 37 39 40 40 39 38 36 35 34 34 33 33 32 32 30 30 30 30 29 28 28 27 26 25 25 27 28 29 29 30 30 31 32 34 35 36 38 39 40 41 41 42 44 45 44 44 44 43 43 44 45 46 45 43 40 38 39 39 39 39
43 44 44 44 43 41 39 37 35 35 36 37 37 35 34 34 36 39 40 38 36 35 35 34 34 37 39 40 39 38 38 37 36 36 36 35 34 33 33 33 33 33 32 31 31 31 30 28 27 26 26 28 29 30 30 29 29 30 32 33 34 36 38 39 41 42 43 44 45 46 46 46 45 45 45 46 47 47 46 43 40 38 38 38 38
41 43 44 44 45 44 42 40 37 36 36 37 38 38 37 35 35 37 40 40 37 32 29 29 32 33 35 36 37 38 38 38 38 37 37 35 34 34 33 33 32 31 31 31 32 33 33 32 31 30 29 30 31 32 32 31 31 32 33 34 35 35 37 38 39 40 41 41 42 44 46 46 45 46 47 47 48 48 49 47 44 41 40 39 38
39 41 42 44 45 45 45 43 40 38 37 37 38 39 40 39 37 35 36 40 40 35 29 27 29 30 32 34 35 37 38 38 38 37 37 36 35 34 33 32 30 29 29 29 30 32 32 33 33 33 33 34 34 35 36 36 36 36 37 37 38 38 39 39 40 40 41 41 42 44 45 45 46 47 47 48 49 51 51 50 46 43 41 40 38
37 39 41 42 43 44 45 44 43 41 39 37 37 39 40 42 41 38 35 36 38 38 34 30 28 29 31 34 35 35 36 37 37 37 37 36 36 36 35 34 33 32 32 32 33 33 33 33 33 34 35 36 37 38 39 39 40 41 41 42 42 42 42 42 42 42 42 43 45 46 46 46 47 47 46 47 50 52 53 52 49 46 43 42 41
36 37 39 40 41 42 44 44 43 42 41 39 38 38 39 41 43 42 39 35 34 35 36 34 31 30 32 35 36 35 34 35 36 37 36 36 36 37 37 36 36 35 35 36 36 36 36 36 36 36 36 37 38 39 40 41 42 43 44 45 45 46 45 45 44 44 45 46 47 47 47 47 48 48 48 48 49 50 52 54 53 49 45 43 43
35 36 37 38 39 40 42 42 42 42 42 41 40 39 38 40 42 43 43 40 37 35 35 36 34 31 31 35 39 39 37 35 35 35 36 36 37 37 37 38 38 38 38 39 39 40 40 40 40 40 39 39 39 40 41 42 43 45 46 48 49 49 48 47 45 45 46 48 49 48 48 49 50 51 52 52 51 51 51 54 56 54 49 45 45
34 35 36 37 38 39 39 40 41 41 41 41 41 39 38 38 40 42 44 44 43 40 39 39 38 35 33 34 37 40 41 40 38 37 37 37 38 39 39 40 41 41 41 42 43 44 44 44 43 43 42 41 41 42 43 43 44 46 49 51 51 51 51 49 47 45 46 48 50 51 51 51 52 52 53 54 55 54 54 54 56 57 54 49 47
34 33 34 36 37 38 38 38 39 40 40 40 40 40 39 38 38 40 42 44 45 44 44 43 41 39 37 36 35 38 41 42 42 42 42 41 41 42 42 42 42 43 43 44 45 46 46 46 46 46 45 44 44 44 45 46 46 47 49 51 52 52 51 50 48 46 46 48 50 53 55 55 55 54 53 53 55 57 56 55 56 58 58 54 49
34 33 33 34 36 37 37 37 38 38 39 39 39 40 40 39 39 39 40 42 43 44 45 46 45 43 41 39 38 38 39 41 42 44 45 45 46 45 45 45 46 45 45 46 48 49 48 48 47 47 46 45 46 47 48 49 49 49 49 51 52 52 51 50 49 48 47 47 49 52 55 57 57 55 54 54 55 57 58 56 56 59 60 57 53
35 34 32 33 35 36 36 37 37 37 37 37 37 38 39 39 39 39 39 40 41 42 43 46 47 45 43 40 39 39 41 42 42 43 45 47 48 48 47 48 48 48 49 50 50 51 51 50 49 49 48 46 47 49 51 51 51 50 49 50 51 52 52 50 50 49 48 47 48 51 54 56 56 55 55 55 56 57 58 59 59 60 59 58 57
35 35 33 33 34 35 35 36 37 37 37 36 35 35 36 37 37 38 38 39 40 41 42 44 46 47 45 41 39 39 43 45 44 43 45 46 47 48 48 48 49 49 50 50 50 50 49 49 49 49 48 48 48 50 51 52 52 50 49 49 50 51 51 51 50 49 48 48 49 51 54 55 55 56 56 56 56 56 57 59 61 60 58 58 60
33 34 34 33 33 34 35 35 36 37 36 35 34 34 35 36 36 36 36 36 38 39 41 42 44 47 48 46 43 43 46 48 46 45 45 45 46 46 47 47 48 48 48 47 47 46 46 47 47 47 47 48 49 50 51 52 53 52 50 48 48 49 49 49 49 48 47 47 48 50 53 55 56 56 56 56 57 57 57 58 59 58 57 59 61
31 32 33 33 33 33 34 35 35 36 36 35 34 34 34 35 35 35 34 34 36 38 39 41 42 44 47 48 49 49 50 50 48 46 46 46 46 47 47 47 47 47 46 45 45 45 45 45 45 45 46 47 49 50 51 52 52 52 51 49 47 47 48 48 48 48 47 47 48 49 52 54 55 56 56 56 56 57 59 60 60 59 57 58 61
31 31 32 32 32 32 32 34 35 35 35 35 34 33 33 34 34 34 33 33 34 35 37 39 40 41 43 46 49 52 53 52 50 48 47 48 49 49 49 49 48 48 46 46 45 45 45 46 46 47 48 49 49 50 51 51 51 51 50 48 46 46 47 47 48 49 49 49 49 50 52 55 56 56 56 55 55 57 61 63 62 60 58 59 60
Wind_Direction
224 221 219 219 218 217 215 213 212 211 211 212 214 217 218 216 213 212 213 215 216 216 216 214 211 208 207 206 205 205 204 203 202 202 203 200 196 198 206 212 212 209 209 211 211 211 211 210 212 216 218 219 218 213 212 212 207 207 212 213 211 210 210 213 219 225 231 237 243 248 256 263 270 276 282 287 291 295 299 303 307 310 313 312 311
224 225 223 221 219 218 218 216 215 215 214 214 215 217 219 218 216 214 213 215 217 218 219 217 215 212 210 209 208 207 207 206 206 207 210 211 208 205 206 212 215 213 211 212 213 213 214 213 214 218 222 224 223 218 213 211 209 209 212 214 214 213 214 216 221 228 235 242 249 254 260 265 270 275 280 285 289 293 296 300 304 306 310 310 306
222 224 225 226 224 222 221 219 217 218 218 217 217 217 219 220 220 217 215 216 218 219 220 220 219 218 216 215 213 211 210 210 209 209 213 216 217 216 213 213 215 213 212 213 213 214 216 217 219 221 224 226 224 220 217 213 210 210 212 215 216 217 218 219 223 230 238 247 254 260 265 269 274 277 281 284 287 291 293 296 300 303 307 308 304
219 221 222 225 226 226 226 222 220 220 220 220 219 218 219 220 222 221 219 219 220 220 222 222 221 221 222 221 220 219 217 216 215 215 217 219 221 223 221 217 216 216 215 217 218 219 221 223 225 224 225 227 223 219 216 214 213 213 213 215 218 220 222 223 226 232 239 248 256 264 270 274 278 282 285 287 288 290 293 296 299 301 304 307 305
216 219 219 221 223 226 227 226 223 221 221 222 221 221 222 222 222 223 223 224 223 223 224 225 224 224 224 225 226 226 225 223 222 221 223 223 224 225 226 224 222 221 221 222 224 226 227 229 231 229 228 226 223 220 216 214 215 217 217 218 221 223 225 227 230 234 239 246 253 261 269 274 279 284 287 290 292 293 295 296 299 301 304 307 308
211 215 217 219 223 225 226 227 226 224 223 222 222 222 223 224 224 224 225 228 228 227 227 228 228 227 227 228 228 229 229 228 227 226 227 229 229 229 229 229 228 227 227 227 227 228 230 232 234 234 232 229 226 223 219 217 218 220 222 224 226 228 231 233 236 240 243 248 253 259 265 270 275 281 285 289 292 294 296 298 300 302 304 306 309
211 209 212 217 223 227 228 228 228 228 227 225 223 222 223 225 227 226 227 229 231 231 231 231 231 230 230 231 230 231 232 232 230 229 229 230 231 232 233 233 233 232 232 232 231 230 230 232 235 236 234 231 230 228 225 222 222 224 227 229 232 235 238 240 244 247 250 254 258 262 267 270 274 279 283 286 289 292 294 297 299 301 303 305 306
213 208 207 212 220 225 228 229 228 228 229 228 226 224 223 225 227 228 228 230 232 233 234 235 235 234 233 233 233 233 233 234 234 232 231 232 232 233 234 236 236 236 236 236 236 235 233 232 234 236 235 232 231 232 231 229 228 230 232 234 237 240 243 247 249 252 256 260 263 266 270 273 276 280 283 286 288 290 292 294 296 298 300 302 303
215 211 208 209 214 219 222 225 227 228 228 229 229 228 227 227 227 229 230 231 233 234 235 236 237 236 236 236 236 235 235 235 236 235 235 235 235 234 235 236 237 238 238 238 239 238 237 236 235 236 236 234 232 233 234 234 234 236 238 240 242 244 247 250 254 257 260 263 267 270 273 275 278 282 285 287 288 289 290 291 294 296 298 298 299
213 214 213 213 213 213 215 218 222 225 227 228 229 230 231 231 230 230 229 230 233 235 236 237 238 238 239 239 239 239 239 238 238 238 239 238 238 237 236 236 236 238 239 239 240 240 239 239 239 238 237 236 235 234 236 237 238 240 242 244 246 249 251 254 257 261 265 268 271 274 277 279 281 285 287 289 289 289 290 291 293 295 296 296 296
206 211 215 215 215 214 213 214 216 219 223 226 227 229 231 233 234 233 232 231 232 234 236 237 239 240 240 241 241 242 242 241 239 239 240 240 239 239 239 238 237 238 239 240 240 241 241 241 241 241 239 238 238 239 239 240 241 242 245 248 250 253 256 259 262 265 269 272 274 276 279 281 284 286 288 289 289 289 291 293 294 294 294 294 296
202 208 213 215 217 216 213 213 215 217 219 222 224 226 228 231 234 236 236 235 234 234 235 237 239 240 242 242 242 242 243 244 241 238 238 239 240 240 241 240 239 238 239 240 241 241 242 243 243 244 243 241 241 242 242 243 244 246 248 251 254 256 259 263 266 269 272 274 276 278 281 284 285 287 287 287 287 288 290 292 293 293 294 295 297
202 207 214 216 218 218 216 215 218 219 220 221 222 224 226 228 232 236 237 238 238 236 236 236 237 239 241 243 243 243 243 243 242 240 239 239 240 241 242 243 242 241 241 241 242 242 242 243 244 246 247 246 245 244 245 246 247 249 251 253 256 259 262 264 267 269 273 276 278 281 283 284 285 286 286 285 285 286 288 290 291 292 293 295 299
210 208 213 215 216 217 218 218 221 223 223 222 222 224 227 228 230 234 237 238 238 237 237 237 237 238 240 242 244 244 244 243 242 241 240 240 240 241 243 244 245 244 243 243 243 243 243 244 245 246 248 250 250 249 249 250 250 251 253 256 258 261 263 265 268 271 275 277 280 282 283 283 283 283 282 282 283 284 286 288 289 291 293 297 300
223 217 215 215 214 214 215 219 222 224 224 225 226 228 230 230 231 234 237 239 239 238 237 238 238 238 239 241 242 243 244 244 243 240 239 240 241 241 242 244 245 246 246 245 245 245 245 245 246 247 248 251 253 253 253 254 254 254 255 257 260 263 265 268 270 273 276 277 280 281 281 280 280 279 278 279 281 283 285 286 289 292 295 297 298
231 226 221 218 216 214 215 219 221 221 222 225 228 231 233 234 235 236 238 240 241 239 238 238 238 238 238 239 241 242 242 243 243 241 239 239 240 241 241 243 244 246 246 247 247 246 246 246 246 247 248 250 253 254 254 255 257 258 258 260 263 265 268 270 270 271 274 275 276 277 277 276 275 275 275 277 279 282 283 286 291 295 296 295 296
240 235 229 224 220 218 217 218 219 220 223 226 229 232 235 237 237 237 238 241 242 241 239 238 238 238 238 238 239 240 240 240 241 240 239 239 240 241 242 243 244 246 247 247 247 247 247 248 247 247 248 249 251 252 253 254 257 260 261 262 264 266 268 270 270 269 270 272 272 271 271 271 273 273 273 275 279 281 283 287 292 293 293 294 296
250 244 238 232 226 222 220 219 219 220 223 226 228 231 234 236 238 238 239 241 242 242 240 239 238 238 237 237 237 237 238 238 238 237 237 238 239 241 243 243 243 244 245 246 247 247 247 247 247 248 249 249 250 251 251 252 256 259 262 263 264 266 267 269 270 270 268 268 269 271 271 270 270 272 274 277 280 282 284 289 292 291 290 293 295
260 253 247 241 236 230 225 222 222 222 223 225 226 227 230 232 235 237 239 241 241 241 240 238 237 236 235 235 235 235 235 235 235 234 234 235 237 239 241 242 243 243 244 245 247 247 248 248 248 248 249 250 251 252 251 251 254 258 261 263 264 266 267 267 268 269 268 265 263 266 269 271 272 274 276 280 282 284 287 290 290 287 287 288 290
267 263 257 251 247 240 233 227 225 224 224 225 227 228 228 228 229 230 233 236 238 240 241 240 238 236 235 234 234 233 233 234 233 232 232 233 235 236 239 241 242 243 243 245 246 248 248 248 248 248 249 251 252 253 253 252 254 257 259 261 264 266 267 267 266 265 265 264 263 262 265 269 273 276 279 281 282 284 287 287 287 285 284 284 284
269 268 265 260 255 249 243 236 230 228 227 227 230 232 231 231 232 232 231 231 234 237 240 241 241 239 237 236 235 234 233 233 233 231 231 232 233 235 238 240 242 243 244 245 246 248 249 249 250 250 249 250 252 254 255 254 254 256 258 261 264 265 265 264 264 262 262 263 265 266 266 269 273 277 280 282 284 285 285 284 284 283 281 280 279
274 270 268 266 261 256 252 245 238 234 232 231 232 235 234 232 235 238 238 237 235 235 236 238 240 242 241 238 237 236 234 234 234 233 231 231 232 235 237 240 241 242 244 245 246 247 249 251 251 252 251 251 252 254 256 256 255 255 258 261 263 263 263 262 262 262 262 263 265 267 269 271 275 277 280 282 284 284 284 283 282 281 281 280 277
283 276 271 268 266 263 259 254 247 241 238 236 236 237 236 232 232 235 239 241 242 242 241 239 238 240 239 237 236 236 235 234 233 233 231 230 231 234 237 240 241 242 244 246 247 248 249 251 252 252 252 251 251 253 255 256 256 256 257 259 261 262 262 261 260 260 262 264 265 267 269 272 275 277 279 280 281 282 282 282 280 280 281 281 280
280 281 276 271 269 266 263 260 255 249 245 242 240 240 238 235 234 236 236 239 243 245 247 247 245 243 242 240 238 237 238 239 236 232 231 231 231 233 237 240 241 243 244 247 247 248 249 250 251 252 252 251 250 251 253 255 256 257 257 258 259 259 259 260 261 262 264 265 266 269 271 273 275 276 277 278 278 278 278 278 279 281 282 282 282
270 276 278 275 271 266 263 261 259 255 251 248 247 246 243 238 237 238 237 238 241 243 247 251 251 248 246 246 245 241 240 241 240 234 230 230 230 232 235 239 242 243 245 247 248 249 250 250 251 251 251 250 249 249 251 254 256 258 258 257 257 257 258 260 262 264 266 268 270 272 273 274 276 276 276 276 275 275 276 278 279 281 282 281 281
262 266 272 274 272 267 262 260 260 258 254 251 250 251 248 240 235 236 237 239 243 244 247 251 253 252 249 250 252 251 246 242 239 234 227 224 225 228 231 235 240 242 244 246 248 249 250 251 251 250 249 249 249 249 252 254 256 256 256 255 255 257 259 262 264 267 269 271 272 273 274 276 276 276 276 276 276 276 278 279 279 279 279 279 278
259 260 263 268 271 269 264 262 263 263 261 255 250 250 248 241 234 233 234 239 243 245 246 248 253 257 258 257 257 257 255 248 240 234 227 222 222 227 230 233 238 242 244 246 248 250 252 252 253 252 251 250 250 250 251 252 253 254 255 255 256 258 261 263 266 268 270 271 272 275 277 277 277 277 278 279 278 279 280 280 279 277 276 277 277
260 259 258 260 264 268 266 264 264 267 268 262 254 249 247 242 235 231 230 234 240 245 246 246 249 256 263 266 263 260 259 255 245 236 231 226 224 229 232 234 238 242 243 246 249 250 250 250 249 250 249 249 250 250 251 253 254 255 257 258 259 260 262 264 265 266 268 271 274 276 277 278 278 279 280 280 279 279 281 281 280 277 276 276 276
260 260 258 255 257 261 265 266 266 267 269 267 259 252 248 244 238 231 227 229 234 240 245 247 248 251 259 266 267 262 257 253 248 242 237 229 221 223 228 230 235 239 242 244 245 244 243 242 243 245 246 247 249 250 252 254 255 256 258 259 260 261 261 263 264 266 269 272 274 276 277 278 279 280 281 280 280 280 281 281 280 278 277 275 274
259 260 258 255 253 254 258 263 266 268 268 267 263 256 250 247 242 234 228 226 229 234 239 244 248 250 253 262 268 263 254 250 251 249 244 233 221 220 224 227 229 233 237 239 241 241 241 241 243 245 247 249 251 252 254 255 257 258 259 260 261 262 262 263 265 267 268 271 273 275 277 278 280 282 282 281 282 282 281 279 279 278 277 276 275
256 257 256 255 252 250 251 255 261 267 268 266 265 259 251 247 245 239 232 228 228 232 235 236 241 247 249 255 263 261 252 250 253 253 250 245 234 226 229 232 232 233 236 238 241 243 245 246 247 248 250 252 254 255 256 258 259 261 262 262 263 263 264 266 267 268 270 272 273 274 275 277 279 281 282 282 283 282 281 279 278 278 277 277 276
252 252 253 253 251 249 248 250 253 261 266 266 265 262 255 248 243 240 235 231 229 230 231 232 234 240 244 248 253 252 247 248 253 255 256 256 247 237 235 237 237 238 240 242 245 249 251 252 252 252 253 255 256 256 256 257 258 260 262 263 264 265 265 266 267 269 271 272 273 274 275 276 277 278 279 281 283 282 280 279 278 277 278 280 278
249 249 249 250 250 249 248 247 248 252 259 264 265 264 259 251 244 239 235 231 228 227 227 228 230 231 236 242 246 245 244 247 251 253 255 253 247 240 238 238 238 239 241 244 248 251 254 255 256 256 256 257 257 257 257 257 257 258 259 262 264 265 265 266 266 267 268 269 271 272 274 274 275 275 276 278 280 281 280 279 278 277 278 280 278
247 247 247 247 248 248 247 246 246 247 251 258 262 262 259 254 247 241 236 231 227 225 223 225 226 226 228 234 238 240 242 244 244 245 245 243 242 240 238 236 237 239 241 244 247 251 253 255 256 257 257 258 260 261 262 262 262 261 261 262 263 264 265 265 266 267 267 267 267 269 272 273 274 274 274 275 276 278 279 280 279 278 278 278 277
247 246 246 246 246 246 245 245 245 244 245 250 255 258 258 255 250 243 237 232 228 225 223 224 225 225 225 227 230 234 239 240 239 239 239 240 241 240 237 237 238 240 242 245 248 251 253 254 256 256 257 259 260 262 264 266 266 266 265 265 265 265 266 267 267 268 269 268 267 267 270 272 273 273 273 273 272 272 276 280 280 279 278 276 274
247 246 245 246 246 245 244 244 243 242 241 243 248 254 257 256 251 245 238 233 229 226 225 225 227 227 225 225 227 231 235 238 238 237 238 239 240 240 239 241 243 246 248 249 251 253 253 253 253 254 256 256 257 259 261 263 264 265 266 266 266 266 267 267 266 267 269 269 268 267 267 269 272 273 273 272 271 271 274 277 278 278 277 275 274
247 247 246 246 246 246 244 244 243 243 240 238 240 246 253 255 252 246 239 235 232 229 227 227 229 229 227 226 228 231 233 235 236 237 237 238 240 242 245 247 250 252 252 253 255 256 255 254 253 252 252 253 254 255 256 258 260 262 264 264 265 266 266 267 267 268 269 270 270 269 268 268 269 271 273 274 274 273 273 275 277 277 276 275 273
247 248 248 248 247 247 246 245 244 244 242 239 237 239 245 252 254 249 242 236 232 230 230 230 231 231 228 227 229 233 233 233 235 236 236 237 241 245 249 252 253 255 255 255 256 256 257 257 256 253 250 251 252 253 254 255 257 259 261 263 264 265 265 267 269 270 270 271 272 273 274 272 270 269 269 271 273 273 273 274 276 276 274 273 272
247 248 250 250 249 249 249 248 246 245 245 242 238 236 238 244 250 252 248 240 232 229 232 234 233 231 229 228 231 235 235 234 235 236 236 237 240 244 248 251 254 257 259 259 258 258 258 257 256 254 253 252 253 254 256 256 255 256 258 259 260 261 263 264 265 266 267 269 271 273 274 275 272 269 266 266 269 271 271 271 273 274 273 270 269
249 248 250 252 251 251 251 251 249 247 247 246 243 238 235 237 241 247 250 244 235 228 231 239 241 236 232 231 235 237 237 235 234 234 236 237 239 241 245 249 253 257 261 263 263 264 263 261 258 256 254 254 255 256 257 257 257 256 256 256 257 258 260 261 262 264 266 266 266 267 269 271 271 270 268 266 266 267 269 269 271 273 272 270 267
252 250 249 251 253 252 252 253 252 251 249 248 247 242 238 235 236 239 243 245 240 231 228 235 246 246 240 237 240 241 238 234 234 234 235 237 239 242 245 249 253 257 261 264 266 267 267 267 265 262 258 256 256 257 257 258 258 258 257 258 258 259 259 261 264 267 267 266 265 265 267 269 270 271 271 269 267 267 268 269 269 270 271 270 266
255 252 250 251 252 253 253 253 254 254 252 250 249 247 242 238 236 236 237 241 243 239 233 235 246 253 248 242 242 245 243 238 235 235 236 238 241 244 247 250 254 257 260 263 266 267 268 268 268 266 263 260 260 260 259 259 259 259 259 260 260 261 262 264 267 268 267 265 264 265 266 267 268 269 269 268 267 267 268 269 269 268 269 269 267
256 254 252 251 251 253 253 253 254 255 254 252 250 249 246 241 238 237 237 237 239 242 240 240 246 254 253 246 242 244 247 246 242 240 240 242 244 246 249 252 254 257 259 262 264 266 267 267 267 267 266 264 264 264 262 259 258 258 259 259 260 260 262 265 267 268 268 267 265 265 266 266 267 269 269 267 265 265 265 265 266 267 267 267 266
258 256 254 252 251 251 252 253 254 254 254 254 252 250 248 245 241 238 238 238 237 238 241 243 246 252 255 252 246 243 243 245 247 247 247 247 249 250 253 255 258 260 262 263 264 264 265 265 266 266 267 267 267 267 265 261 258 257 257 258 259 260 263 265 267 268 268 267 264 264 266 266 267 268 269 267 265 264 262 260 261 263 264 263 264
259 258 255 253 251 251 251 252 253 254 253 254 253 251 249 248 244 241 239 239 238 238 238 241 245 249 252 254 254 249 244 242 244 247 250 252 253 254 255 257 259 261 262 263 263 263 263 263 263 263 265 266 267 269 269 266 263 260 258 259 260 261 262 264 266 265 265 264 262 262 263 264 265 267 268 267 265 263 262 261 260 261 261 261 261
261 260 257 253 252 251 251 251 252 253 253 253 253 252 251 250 249 246 243 241 241 240 238 238 240 244 247 250 253 256 254 248 243 244 248 251 252 253 254 255 257 259 260 261 261 261 261 261 260 260 261 263 265 266 267 267 266 263 260 260 261 262 262 263 264 264 262 261 261 261 262 263 264 266 268 268 266 264 263 262 261 260 260 260 260
261 261 259 255 253 251 251 251 251 252 253 254 253 253 253 252 252 251 249 246 245 244 242 239 238 238 242 245 248 255 260 259 251 245 246 249 250 251 252 253 254 256 257 258 260 260 260 260 259 259 260 261 263 265 266 267 267 265 262 260 260 261 261 262 262 262 261 260 259 259 261 262 263 265 267 268 269 268 266 263 261 260 261 262 261
260 259 258 257 254 252 250 250 249 250 252 253 254 254 253 253 253 254 254 253 250 248 246 244 240 236 236 239 244 252 261 263 259 252 248 249 249 251 252 253 253 254 256 257 258 259 259 259 258 258 259 260 262 264 266 268 269 268 265 261 259 259 260 260 261 262 262 261 259 259 260 261 262 263 265 266 267 268 267 266 263 261 261 262 262
258 257 257 256 255 253 250 249 248 248 249 251 253 254 254 254 254 254 254 255 255 253 250 248 245 240 236 235 240 250 260 263 261 256 254 252 252 252 252 253 253 254 254 255 256 257 258 259 259 258 259 260 261 263 265 268 269 269 267 264 260 259 259 259 260 262 263 262 261 261 261 261 262 263 264 266 266 267 267 267 265 262 261 261 262
257 255 254 254 253 253 251 248 246 247 248 249 252 254 255 254 254 254 255 256 257 257 255 253 250 247 242 238 239 247 256 261 261 258 256 255 254 254 253 253 253 253 253 254 255 256 257 258 259 259 259 260 262 264 265 266 268 269 268 266 263 260 259 259 260 261 261 261 261 261 261 262 262 263 264 265 266 266 265 264 262 260 259 259 259
260 256 254 253 253 253 251 248 246 245 246 247 249 252 255 255 254 254 256 258 259 259 259 258 256 253 249 246 244 246 250 255 258 257 255 254 254 253 253 253 253 253 253 253 254 255 256 257 258 259 260 261 262 263 264 265 266 267 267 266 263 261 260 259 260 260 260 260 260 261 261 262 263 264 264 264 264 264 264 264 263 260 258 257 257
Height
3213 3214 3217 3218 3220 3223 3224 3226 3227 3228 3230 3231 3232 3234 3235 3236 3237 3238 3239 3240 3241 3242 3243 3243 3244 3245 3245 3246 3246 3247 3248 3248 3249 3249 3250 3251 3251 3252 3252 3252 3253 3254 3254 3255 3256 3256 3257 3258 3259 3259 3260 3261 3261 3262 3263 3263 3264 3265 3265 3266 3267 3267 3268 3268 3269 3270 3270 3271 3271 3271 3271 3271 3271 3271 3271 3271 3270 3270 3270 3269 3269 3268 3267 3265 3264
3211 3213 3214 3216 3218 3220 3222 3224 3226 3227 3228 3229 3231 3232 3233 3235 3236 3237 3238 3239 3240 3241 3242 3242 3243 3244 3244 3245 3245 3246 3247 3247 3248 3249 3249 3250 3250 3251 3252 3252 3252 3253 3254 3254 3255 3256 3256 3257 3258 3259 3259 3260 3261 3261 3262 3262 3263 3264 3265 3266 3266 3267 3267 3267 3268 3269 3269 3270 3270 3270 3270 3270 3270 3270 3270 3270 3269 3269 3268 3268 3267 3267 3266 3264 3262
3209 3211 3212 3214 3216 3218 3220 3222 3224 3225 3227 3228 3229 3230 3232 3233 3234 3235 3236 3237 3238 3239 3240 3241 3242 3242 3243 3243 3244 3245 3246 3246 3247 3248 3248 3249 3250 3250 3251 3251 3252 3252 3253 3253 3254 3255 3255 3256 3257 3258 3258 3259 3260 3261 3261 3262 3262 3263 3264 3265 3265 3266 3266 3267 3267 3268 3268 3269 3269 3269 3269 3269 3269 3269 3269 3268 3268 3267 3267 3267 3266 3265 3264 3263 3261
3206 3208 3210 3212 3214 3216 3217 3219 3221 3223 3224 3226 3228 3229 3230 3231 3232 3233 3235 3235 3236 3238 3238 3239 3240 3241 3242 3242 3243 3244 3244 3245 3246 3246 3247 3248 3248 3249 3250 3251 3251 3251 3252 3253 3253 3254 3255 3255 3256 3257 3257 3258 3259 3260 3260 3261 3262 3262 3263 3264 3264 3265 3265 3266 3266 3267 3268 3268 3268 3268 3268 3268 3267 3267 3267 3266 3266 3266 3265 3265 3264 3264 3263 3262 3260
3204 3206 3208 3210 3211 3213 3215 3217 3219 3220 3222 3224 3226 3227 3228 3229 3230 3231 3232 3233 3235 3236 3237 3237 3238 3239 3240 3241 3242 3243 3243 3244 3244 3245 3246 3246 3247 3248 3249 3249 3250 3251 3251 3252 3253 3253 3254 3254 3255 3256 3256 3257 3258 3259 3259 3260 3261 3261 3262 3263 3263 3264 3264 3265 3266 3266 3266 3267 3267 3267 3267 3266 3266 3266 3265 3264 3264 3263 3263 3263 3262 3262 3261 3261 3259
3202 3204 3206 3208 3209 3210 3212 3214 3216 3218 3220 3222 3223 3225 3226 3227 3228 3229 3230 3231 3232 3234 3235 3235 3236 3238 3239 3239 3240 3241 3241 3242 3243 3244 3244 3245 3246 3246 3247 3248 3249 3250 3250 3251 3252 3252 3253 3253 3254 3254 3255 3256 3257 3257 3258 3259 3260 3260 3261 3262 3262 3263 3263 3264 3264 3265 3265 3266 3266 3266 3265 3265 3265 3264 3263 3263 3262 3261 3260 3260 3260 3259 3259 3258 3257
3200 3202 3204 3205 3207 3208 3210 3212 3214 3215 3217 3219 3221 3222 3223 3225 3226 3227 3228 3229 3230 3231 3232 3233 3234 3236 3237 3237 3238 3239 3239 3240 3241 3242 3242 3243 3244 3245 3246 3247 3247 3248 3249 3250 3250 3251 3252 3252 3252 3253 3254 3255 3255 3256 3257 3258 3258 3259 3260 3260 3261 3261 3262 3262 3263 3263 3264 3264 3264 3264 3264 3263 3263 3263 3262 3261 3260 3259 3258 3258 3257 3257 3256 3255 3255
3197 3199 3201 3203 3204 3206 3208 3210 3211 3213 3214 3216 3217 3219 3220 3222 3223 3224 3226 3227 3228 3229 3230 3231 3232 3233 3234 3235 3236 3236 3237 3237 3238 3239 3240 3241 3242 3243 3244 3245 3246 3246 3247 3248 3249 3249 3250 3251 3251 3252 3253 3253 3254 3255 3255 3256 3257 3258 3258 3259 3260 3260 3261 3261 3261 3261 3262 3262 3262 3262 3262 3262 3262 3261 3260 3259 3258 3257 3256 3255 3255 3254 3254 3253 3252
3194 3196 3198 3200 3201 3204 3206 3207 3209 3210 3211 3213 3214 3216 3217 3219 3220 3221 3222 3224 3225 3226 3227 3228 3229 3230 3231 3232 3233 3233 3234 3235 3236 3237 3238 3239 3240 3241 3242 3243 3244 3244 3245 3246 3246 3247 3248 3249 3249 3250 3251 3252 3252 3253 3254 3254 3256 3256 3257 3258 3258 3258 3259 3259 3259 3260 3260 3260 3260 3260 3260 3260 3260 3259 3258 3257 3256 3255 3254 3253 3253 3252 3251 3250 3250
3191 3193 3195 3197 3199 3200 3202 3204 3206 3207 3208 3210 3211 3213 3214 3215 3216 3218 3219 3220 3221 3222 3224 3225 3226 3227 3228 3229 3230 3230 3231 3232 3233 3234 3236 3237 3238 3239 3239 3240 3241 3242 3243 3243 3244 3245 3246 3247 3247 3248 3249 3250 3250 3251 3252 3253 3254 3255 3255 3256 3256 3257 3257 3257 3257 3258 3258 3258 3258 3258 3257 3257 3258 3257 3256 3255 3253 3252 3251 3251 3250 3250 3249 3248 3247
3189 3191 3192 3194 3195 3196 3198 3200 3202 3203 3205 3207 3208 3210 3211 3211 3212 3214 3215 3217 3218 3219 3220 3221 3222 3223 3224 3225 3226 3227 3228 3229 3231 3232 3233 3234 3235 3236 3237 3238 3239 3239 3240 3241 3242 3242 3243 3244 3245 3246 3247 3247 3248 3249 3250 3251 3251 3252 3253 3254 3254 3254 3255 3255 3255 3256 3255 3255 3255 3255 3255 3255 3255 3255 3254 3252 3250 3249 3248 3248 3248 3247 3246 3245 3244
3185 3187 3188 3190 3191 3193 3195 3197 3198 3199 3201 3203 3204 3206 3207 3208 3208 3210 3211 3212 3213 3214 3216 3217 3218 3219 3220 3221 3222 3223 3225 3226 3228 3229 3230 3231 3232 3233 3234 3235 3235 3236 3237 3238 3239 3240 3240 3241 3242 3243 3244 3245 3246 3247 3247 3248 3249 3250 3250 3251 3251 3251 3252 3252 3253 3253 3253 3253 3252 3252 3252 3252 3252 3252 3251 3249 3248 3247 3246 3245 3245 3244 3243 3242 3242
3181 3183 3185 3187 3189 3192 3193 3194 3195 3196 3198 3199 3200 3201 3203 3204 3205 3206 3207 3208 3209 3210 3211 3213 3214 3215 3216 3217 3218 3220 3221 3222 3224 3225 3227 3228 3229 3230 3231 3231 3232 3233 3234 3235 3236 3237 3237 3238 3239 3240 3241 3242 3243 3244 3245 3246 3246 3247 3247 3248 3248 3248 3249 3250 3250 3250 3250 3249 3249 3249 3249 3249 3249 3248 3247 3246 3245 3244 3244 3243 3242 3242 3241 3240 3240
3177 3180 3181 3183 3186 3189 3190 3191 3193 3194 3195 3195 3196 3197 3198 3200 3201 3202 3203 3203 3204 3205 3207 3208 3209 3211 3212 3213 3214 3216 3217 3218 3220 3222 3223 3224 3225 3226 3227 3228 3229 3229 3230 3231 3232 3233 3234 3235 3236 3237 3238 3239 3239 3241 3242 3243 3243 3244 3244 3244 3245 3245 3246 3246 3247 3247 3247 3246 3246 3246 3246 3246 3245 3245 3244 3243 3242 3242 3241 3241 3240 3239 3239 3238 3238
3174 3176 3178 3180 3182 3184 3186 3188 3189 3191 3192 3192 3192 3193 3194 3195 3197 3198 3198 3199 3200 3201 3202 3203 3205 3206 3208 3209 3210 3211 3213 3214 3216 3218 3219 3220 3221 3222 3223 3224 3224 3225 3227 3228 3229 3230 3231 3232 3233 3234 3235 3235 3236 3237 3239 3239 3240 3240 3241 3241 3241 3242 3242 3243 3243 3244 3243 3243 3242 3243 3243 3243 3242 3242 3241 3240 3239 3239 3238 3238 3237 3237 3237 3236 3236
3170 3172 3173 3175 3177 3180 3182 3184 3185 3186 3188 3188 3189 3190 3190 3191 3192 3193 3194 3195 3196 3197 3198 3199 3200 3202 3203 3204 3205 3207 3209 3210 3211 3213 3215 3217 3217 3218 3218 3219 3220 3221 3222 3224 3225 3226 3227 3228 3229 3230 3231 3232 3233 3234 3235 3236 3236 3236 3237 3238 3238 3238 3239 3239 3240 3241 3240 3239 3239 3239 3240 3239 3239 3239 3239 3238 3237 3236 3236 3235 3235 3235 3234 3233 3233
3167 3168 3169 3171 3173 3175 3177 3179 3181 3182 3183 3184 3185 3186 3186 3187 3188 3189 3189 3190 3191 3193 3194 3195 3196 3197 3199 3200 3201 3202 3204 3206 3207 3209 3211 3212 3212 3213 3214 3215 3216 3217 3218 3220 3221 3222 3223 3224 3225 3226 3227 3228 3229 3231 3232 3233 3232 3232 3233 3234 3235 3235 3235 3236 3237 3237 3237 3236 3236 3236 3236 3236 3236 3236 3236 3236 3235 3234 3233 3233 3234 3232 3231 3230 3230
3163 3165 3166 3167 3169 3171 3172 3174 3176 3178 3179 3180 3181 3181 3182 3182 3183 3184 3184 3186 3187 3188 3190 3191 3192 3193 3194 3195 3196 3198 3200 3201 3202 3204 3206 3207 3208 3209 3210 3211 3212 3213 3214 3215 3217 3218 3219 3220 3222 3222 3224 3225 3226 3227 3229 3229 3229 3229 3229 3230 3231 3232 3232 3233 3233 3233 3234 3233 3233 3232 3232 3233 3233 3233 3233 3233 3233 3231 3230 3231 3232 3230 3229 3228 3228
3160 3161 3162 3164 3165 3166 3168 3169 3171 3172 3173 3174 3174 3174 3175 3176 3178 3179 3180 3181 3182 3184 3185 3186 3187 3189 3190 3191 3192 3193 3195 3196 3197 3199 3201 3202 3203 3204 3205 3205 3207 3208 3210 3211 3212 3213 3215 3216 3218 3219 3220 3222 3223 3224 3225 3226 3226 3225 3226 3226 3227 3228 3229 3230 3230 3230 3230 3229 3230 3229 3228 3229 3229 3229 3230 3230 3230 3228 3228 3228 3228 3227 3226 3226 3225
3156 3158 3159 3160 3161 3162 3163 3164 3166 3167 3168 3168 3167 3167 3168 3170 3171 3172 3174 3176 3178 3180 3181 3182 3183 3184 3185 3186 3187 3188 3190 3191 3192 3194 3196 3197 3198 3199 3200 3201 3202 3204 3206 3207 3208 3209 3210 3212 3213 3215 3217 3218 3219 3220 3221 3222 3222 3222 3222 3223 3224 3226 3226 3226 3226 3227 3226 3225 3226 3226 3225 3225 3225 3226 3226 3227 3227 3226 3225 3225 3224 3224 3223 3223 3222
3153 3154 3155 3156 3157 3158 3159 3160 3161 3162 3162 3162 3162 3162 3165 3167 3169 3169 3170 3172 3173 3175 3176 3177 3178 3180 3181 3182 3183 3184 3185 3186 3188 3189 3191 3193 3194 3195 3195 3196 3198 3200 3202 3203 3204 3205 3206 3207 3209 3211 3213 3215 3216 3216 3217 3218 3219 3219 3218 3219 3221 3223 3223 3222 3222 3222 3222 3221 3221 3222 3222 3222 3222 3223 3223 3223 3223 3223 3222 3221 3221 3220 3220 3219 3219
3151 3151 3151 3152 3153 3154 3155 3155 3156 3157 3157 3157 3156 3157 3161 3164 3166 3167 3169 3170 3171 3171 3171 3172 3174 3175 3177 3178 3179 3180 3181 3182 3183 3185 3187 3188 3189 3190 3191 3192 3194 3196 3197 3198 3199 3200 3201 3203 3205 3207 3209 3211 3212 3212 3212 3213 3214 3214 3215 3216 3218 3218 3218 3218 3217 3217 3217 3218 3218 3218 3218 3219 3219 3220 3220 3220 3220 3219 3218 3218 3217 3216 3216 3216 3215
3148 3148 3148 3148 3149 3150 3151 3151 3152 3152 3152 3152 3152 3152 3153 3157 3160 3163 3166 3168 3170 3171 3171 3171 3171 3170 3171 3172 3174 3175 3177 3178 3179 3180 3182 3184 3185 3186 3187 3188 3190 3192 3193 3194 3195 3197 3198 3199 3201 3202 3205 3207 3208 3208 3208 3208 3209 3210 3211 3213 3214 3214 3214 3213 3212 3212 3213 3213 3213 3214 3215 3216 3216 3217 3217 3217 3217 3216 3215 3214 3214 3213 3212 3212 3212
3145 3145 3145 3145 3146 3146 3147 3147 3147 3147 3147 3147 3147 3146 3146 3152 3158 3162 3164 3165 3166 3168 3170 3171 3171 3170 3169 3169 3169 3170 3172 3174 3175 3176 3177 3179 3181 3182 3183 3184 3185 3187 3189 3190 3191 3193 3194 3196 3197 3199 3200 3202 3203 3204 3204 3203 3204 3206 3207 3209 3209 3209 3208 3207 3207 3208 3208 3208 3209 3210 3211 3212 3213 3213 3213 3214 3213 3212 3211 3211 3210 3210 3209 3208 3208
3142 3142 3142 3142 3143 3143 3143 3143 3142 3142 3142 3142 3142 3141 3144 3151 3157 3159 3160 3161 3162 3163 3166 3168 3170 3171 3170 3168 3167 3166 3167 3168 3170 3172 3173 3175 3176 3177 3179 3180 3181 3183 3185 3186 3188 3189 3191 3192 3194 3195 3196 3198 3199 3199 3199 3199 3200 3202 3203 3204 3204 3203 3202 3202 3203 3203 3203 3204 3205 3206 3207 3208 3209 3209 3209 3209 3209 3208 3208 3208 3207 3206 3205 3204 3203
3139 3139 3139 3139 3139 3139 3139 3139 3138 3138 3137 3138 3138 3139 3142 3148 3151 3152 3155 3157 3158 3159 3162 3163 3165 3167 3168 3168 3166 3164 3162 3163 3164 3166 3168 3169 3171 3172 3174 3175 3177 3179 3180 3182 3184 3185 3187 3188 3190 3191 3192 3193 3193 3194 3194 3195 3197 3197 3198 3198 3198 3198 3198 3198 3199 3199 3199 3200 3201 3201 3203 3204 3204 3204 3205 3205 3204 3204 3204 3204 3203 3203 3202 3200 3199
3135 3135 3135 3135 3136 3136 3136 3136 3135 3135 3134 3134 3136 3137 3139 3142 3145 3147 3150 3152 3153 3155 3157 3158 3160 3163 3165 3166 3166 3163 3161 3159 3159 3160 3163 3165 3166 3167 3169 3171 3172 3174 3176 3178 3180 3181 3183 3185 3186 3187 3188 3188 3189 3189 3190 3191 3191 3192 3192 3193 3194 3194 3194 3195 3195 3195 3195 3196 3196 3197 3198 3199 3199 3200 3200 3200 3200 3200 3200 3200 3199 3199 3198 3197 3195
3130 3131 3131 3131 3132 3132 3132 3132 3132 3132 3132 3132 3133 3134 3136 3138 3141 3143 3145 3147 3148 3150 3151 3153 3156 3159 3160 3162 3163 3162 3161 3159 3157 3156 3158 3160 3161 3163 3164 3165 3167 3169 3171 3173 3175 3176 3178 3180 3181 3182 3182 3183 3183 3184 3185 3185 3186 3187 3188 3189 3189 3190 3191 3191 3191 3191 3191 3192 3193 3193 3194 3194 3195 3195 3195 3195 3195 3196 3196 3195 3194 3194 3194 3193 3192
3125 3126 3126 3127 3127 3128 3128 3128 3129 3129 3129 3130 3130 3131 3132 3134 3137 3139 3140 3141 3143 3145 3147 3149 3152 3154 3155 3158 3159 3159 3158 3158 3156 3154 3154 3154 3154 3156 3158 3160 3162 3164 3165 3167 3169 3170 3172 3173 3174 3176 3177 3177 3178 3179 3180 3181 3182 3182 3183 3184 3185 3185 3186 3186 3186 3186 3187 3188 3189 3189 3189 3190 3190 3190 3191 3190 3191 3191 3191 3191 3190 3189 3189 3189 3187
3120 3121 3122 3122 3123 3123 3123 3124 3124 3125 3126 3127 3127 3128 3128 3130 3132 3134 3136 3137 3138 3140 3143 3145 3147 3147 3150 3155 3156 3154 3154 3155 3154 3152 3151 3148 3146 3147 3151 3154 3156 3158 3160 3161 3162 3164 3166 3167 3169 3170 3171 3172 3173 3174 3175 3176 3177 3177 3178 3179 3180 3180 3181 3181 3181 3182 3183 3184 3184 3184 3184 3184 3185 3185 3185 3185 3186 3187 3187 3186 3185 3184 3184 3184 3183
3115 3116 3117 3117 3118 3118 3118 3119 3119 3120 3122 3123 3124 3124 3125 3126 3128 3129 3131 3132 3134 3135 3138 3140 3141 3142 3146 3151 3152 3149 3149 3151 3152 3150 3148 3145 3142 3142 3145 3149 3151 3153 3154 3156 3157 3159 3161 3162 3164 3165 3166 3168 3169 3170 3171 3171 3172 3173 3173 3174 3175 3175 3176 3176 3177 3178 3179 3179 3179 3179 3179 3179 3180 3180 3180 3180 3180 3181 3182 3181 3180 3179 3179 3179 3178
3110 3111 3112 3113 3113 3114 3114 3114 3114 3115 3116 3118 3119 3120 3121 3122 3123 3124 3125 3127 3129 3131 3133 3135 3136 3137 3141 3145 3147 3146 3145 3145 3146 3146 3143 3140 3138 3139 3142 3145 3147 3148 3150 3151 3153 3155 3156 3158 3159 3160 3161 3162 3164 3165 3166 3166 3167 3168 3168 3169 3170 3170 3171 3171 3172 3173 3174 3174 3174 3174 3174 3174 3174 3175 3175 3175 3175 3176 3176 3176 3175 3175 3174 3173 3173
3105 3106 3107 3108 3108 3109 3109 3109 3110 3110 3111 3113 3114 3115 3117 3117 3118 3120 3121 3122 3124 3126 3129 3130 3131 3132 3135 3138 3140 3140 3139 3139 3139 3138 3137 3136 3136 3137 3140 3141 3142 3143 3145 3146 3148 3151 3152 3153 3154 3155 3156 3157 3159 3160 3160 3161 3162 3163 3163 3164 3164 3165 3166 3166 3167 3168 3168 3169 3169 3168 3168 3169 3169 3170 3170 3170 3170 3170 3170 3170 3170 3170 3169 3168 3168
3100 3101 3102 3103 3103 3104 3104 3105 3105 3105 3106 3107 3109 3111 3112 3113 3114 3115 3116 3117 3119 3121 3124 3126 3127 3127 3129 3132 3134 3135 3134 3133 3133 3133 3133 3133 3134 3135 3136 3137 3138 3139 3140 3142 3144 3146 3148 3149 3150 3151 3152 3153 3154 3154 3155 3156 3157 3158 3159 3160 3160 3160 3161 3161 3162 3162 3163 3163 3164 3163 3163 3164 3164 3164 3164 3164 3165 3164 3164 3164 3164 3164 3163 3162 3162
3095 3096 3097 3097 3098 3099 3099 3100 3101 3101 3101 3102 3104 3106 3107 3109 3110 3110 3111 3112 3114 3116 3118 3120 3121 3122 3123 3125 3128 3129 3129 3128 3128 3128 3129 3130 3131 3132 3132 3133 3134 3135 3136 3137 3140 3142 3143 3144 3145 3146 3147 3148 3149 3150 3150 3151 3152 3153 3154 3155 3155 3155 3156 3157 3157 3157 3157 3158 3158 3159 3159 3159 3158 3158 3158 3158 3159 3158 3158 3158 3158 3157 3157 3157 3157
3089 3090 3092 3092 3093 3094 3094 3095 3096 3096 3097 3097 3099 3100 3102 3104 3105 3106 3106 3107 3108 3110 3112 3114 3115 3116 3117 3119 3121 3122 3122 3122 3123 3124 3125 3125 3126 3127 3129 3130 3131 3132 3132 3134 3136 3137 3139 3140 3141 3142 3143 3144 3144 3145 3146 3147 3147 3148 3148 3149 3149 3150 3151 3151 3152 3151 3151 3151 3152 3152 3153 3153 3153 3153 3152 3152 3151 3151 3152 3152 3152 3151 3151 3152 3152
3084 3085 3086 3087 3088 3088 3089 3090 3091 3091 3092 3093 3094 3095 3097 3098 3100 3101 3102 3102 3102 3103 3105 3107 3108 3110 3111 3112 3113 3114 3115 3116 3118 3119 3120 3121 3122 3123 3125 3127 3128 3128 3129 3130 3132 3133 3134 3135 3136 3137 3138 3139 3140 3141 3142 3142 3143 3143 3143 3143 3144 3144 3145 3145 3146 3146 3146 3145 3145 3145 3145 3146 3146 3146 3146 3145 3144 3144 3145 3146 3146 3145 3145 3146 3147
3079 3080 3081 3082 3082 3083 3084 3085 3085 3086 3087 3087 3088 3090 3091 3092 3094 3096 3097 3098 3098 3098 3099 3100 3102 3103 3105 3106 3106 3107 3108 3111 3113 3114 3115 3117 3118 3119 3121 3122 3123 3123 3125 3126 3127 3128 3129 3130 3132 3133 3134 3134 3135 3136 3137 3138 3138 3139 3139 3139 3139 3139 3140 3140 3140 3140 3140 3139 3139 3138 3138 3139 3139 3139 3138 3138 3138 3138 3138 3139 3139 3139 3139 3140 3141
3073 3075 3076 3077 3077 3078 3079 3079 3080 3081 3081 3082 3083 3084 3085 3087 3088 3089 3091 3094 3095 3094 3094 3094 3096 3097 3099 3100 3102 3102 3103 3105 3107 3109 3111 3112 3114 3115 3116 3117 3118 3119 3120 3121 3122 3122 3124 3125 3126 3127 3129 3130 3130 3131 3132 3133 3134 3134 3134 3134 3134 3134 3135 3135 3135 3134 3134 3134 3134 3133 3132 3132 3132 3132 3131 3131 3131 3131 3131 3132 3132 3133 3132 3133 3134
3068 3070 3071 3072 3072 3073 3074 3074 3075 3076 3076 3077 3078 3078 3079 3081 3083 3084 3085 3087 3089 3090 3090 3090 3091 3093 3095 3096 3098 3099 3099 3101 3103 3105 3106 3108 3109 3111 3112 3112 3113 3115 3116 3116 3117 3117 3118 3120 3121 3122 3123 3124 3125 3126 3126 3127 3128 3128 3129 3128 3129 3129 3129 3129 3129 3129 3129 3129 3128 3127 3126 3126 3125 3125 3125 3125 3124 3124 3124 3124 3125 3126 3126 3126 3128
3062 3064 3066 3067 3067 3068 3069 3070 3070 3071 3071 3072 3073 3073 3073 3075 3077 3079 3080 3082 3083 3085 3085 3086 3087 3089 3091 3092 3093 3094 3095 3096 3098 3100 3101 3103 3104 3105 3107 3108 3109 3109 3110 3111 3112 3112 3112 3114 3115 3116 3117 3118 3119 3120 3120 3121 3121 3122 3122 3122 3122 3123 3123 3123 3123 3123 3123 3122 3121 3120 3120 3120 3119 3119 3120 3120 3119 3117 3116 3117 3118 3119 3119 3120 3121
3057 3058 3060 3061 3062 3063 3064 3065 3065 3066 3067 3067 3068 3068 3068 3069 3070 3072 3075 3076 3078 3079 3080 3081 3082 3084 3086 3087 3087 3088 3090 3091 3093 3094 3096 3097 3098 3100 3101 3102 3103 3104 3105 3105 3106 3106 3107 3107 3108 3109 3110 3111 3112 3113 3113 3114 3115 3115 3115 3115 3116 3116 3116 3117 3117 3117 3116 3115 3114 3114 3114 3114 3113 3112 3113 3113 3112 3111 3110 3110 3110 3111 3112 3113 3114
3052 3053 3055 3056 3057 3058 3059 3060 3061 3061 3062 3063 3063 3063 3063 3064 3064 3066 3068 3070 3072 3074 3076 3077 3077 3078 3080 3081 3082 3083 3084 3085 3087 3088 3090 3091 3092 3094 3095 3096 3096 3097 3099 3099 3100 3100 3100 3100 3102 3103 3104 3105 3106 3106 3106 3107 3108 3108 3108 3108 3108 3108 3109 3110 3111 3112 3110 3109 3107 3107 3108 3107 3106 3105 3105 3104 3104 3104 3103 3103 3102 3103 3104 3105 3106
3047 3048 3049 3050 3051 3052 3053 3054 3055 3056 3057 3058 3058 3059 3059 3059 3059 3060 3062 3064 3066 3068 3071 3073 3073 3073 3074 3075 3076 3078 3079 3080 3081 3082 3083 3085 3086 3087 3089 3090 3090 3091 3092 3093 3093 3093 3093 3094 3095 3096 3097 3098 3099 3099 3098 3099 3100 3100 3100 3100 3101 3101 3101 3103 3104 3105 3104 3103 3101 3100 3099 3099 3098 3097 3096 3096 3096 3095 3095 3094 3095 3095 3095 3097 3098
3043 3043 3044 3045 3045 3047 3048 3049 3050 3051 3052 3053 3053 3054 3054 3054 3055 3056 3057 3058 3060 3061 3064 3067 3068 3068 3068 3069 3070 3072 3073 3075 3076 3077 3078 3079 3080 3081 3082 3084 3084 3085 3085 3085 3085 3086 3086 3087 3088 3089 3090 3091 3091 3091 3091 3091 3091 3091 3092 3092 3093 3093 3094 3095 3097 3097 3096 3096 3094 3093 3091 3091 3090 3089 3089 3089 3088 3087 3086 3087 3087 3088 3087 3089 3091
3038 3039 3039 3040 3040 3041 3042 3043 3044 3046 3047 3047 3048 3049 3049 3050 3050 3051 3052 3053 3054 3055 3057 3060 3062 3063 3064 3064 3064 3065 3067 3069 3070 3071 3072 3073 3073 3074 3076 3077 3077 3078 3079 3079 3078 3078 3079 3080 3081 3081 3082 3083 3083 3083 3083 3083 3083 3083 3084 3084 3085 3085 3086 3088 3088 3088 3088 3087 3087 3085 3084 3083 3082 3082 3082 3082 3081 3080 3079 3079 3079 3079 3080 3082 3084
3034 3034 3034 3035 3035 3036 3037 3038 3039 3040 3041 3042 3043 3044 3044 3045 3045 3046 3047 3047 3048 3049 3051 3053 3055 3057 3059 3059 3059 3059 3061 3062 3063 3064 3065 3066 3067 3068 3068 3069 3070 3071 3071 3071 3071 3071 3071 3072 3073 3074 3075 3075 3076 3075 3074 3075 3075 3075 3076 3077 3077 3077 3078 3079 3079 3079 3079 3079 3078 3077 3076 3075 3075 3075 3075 3074 3072 3072 3072 3071 3070 3071 3073 3075 3077
3028 3029 3030 3030 3030 3031 3032 3033 3035 3036 3037 3038 3038 3039 3040 3040 3040 3041 3042 3042 3043 3044 3045 3047 3049 3050 3052 3054 3055 3055 3055 3056 3057 3057 3058 3059 3060 3061 3061 3062 3063 3063 3063 3064 3064 3064 3064 3065 3065 3066 3067 3067 3068 3067 3067 3067 3067 3067 3068 3068 3069 3069 3069 3070 3071 3071 3071 3071 3069 3068 3067 3067 3066 3066 3066 3065 3064 3064 3063 3063 3063 3065 3067 3068 3069
3023 3024 3024 3025 3026 3026 3027 3028 3030 3031 3032 3033 3034 3034 3035 3035 3035 3036 3036 3037 3037 3038 3040 3041 3042 3044 3046 3048 3050 3050 3050 3051 3051 3051 3052 3052 3053 3053 3054 3055 3055 3056 3056 3056 3057 3057 3057 3057 3058 3058 3059 3059 3060 3060 3059 3059 3059 3058 3059 3059 3060 3060 3061 3062 3063 3064 3064 3063 3062 3061 3059 3058 3058 3058 3058 3057 3056 3055 3055 3055 3056 3058 3060 3060 3060
3018 3018 3019 3020 3020 3021 3022 3023 3024 3026 3027 3028 3029 3029 3030 3030 3031 3031 3032 3032 3032 3033 3034 3035 3036 3038 3039 3041 3043 3044 3045 3045 3045 3045 3045 3045 3046 3046 3047 3048 3048 3048 3049 3049 3050 3050 3050 3050 3050 3051 3051 3051 3051 3051 3051 3051 3051 3050 3050 3051 3051 3052 3053 3054 3054 3055 3055 3055 3054 3053 3052 3051 3050 3050 3049 3049 3048 3048 3048 3048 3049 3051 3052 3052 3051
3013 3013 3014 3015 3016 3016 3017 3018 3019 3021 3022 3023 3024 3025 3025 3026 3026 3026 3027 3027 3028 3028 3028 3029 3030 3031 3032 3034 3036 3037 3038 3038 3039 3039 3039 3039 3039 3040 3040 3041 3041 3041 3042 3042 3042 3043 3043 3043 3043 3043 3043 3043 3043 3043 3043 3043 3042 3042 3042 3043 3043 3044 3045 3045 3046 3046 3046 3046 3046 3045 3044 3043 3042 3041 3041 3041 3041 3040 3040 3041 3043 3044 3044 3043 3042